TIME,�g�[�{�C���[-���� [L],�t���O,�����{�C���[-���� [L],�t���O,�g�[�{�C���[-���� [MJ/h],�t���O,�����{�C���[-���� [MJ/h],�t���O
2004/12/1 0:00,0,0,0,0,0,0,0,0
2004/12/1 0:15,0,0,0,0,0,0,0,0
2004/12/1 0:30,0,0,0,0,0,0,0,0
2004/12/1 0:45,0,0,0,0,0,0,0,0
2004/12/1 1:00,0,0,0,0,0,0,0,0
2004/12/1 1:15,0,0,0,0,0,0,0,0
2004/12/1 1:30,0,0,0,0,0,0,0,0
2004/12/1 1:45,0,0,0,0,0,0,0,0
2004/12/1 2:00,0,0,0,0,0,0,0,0
2004/12/1 2:15,0,0,0,0,0,0,0,0
2004/12/1 2:30,0,0,0,0,0,0,0,0
2004/12/1 2:45,0,0,0,0,0,0,0,0
2004/12/1 3:00,0,0,0,0,0,0,0,0
2004/12/1 3:15,0,0,0,0,0,0,0,0
2004/12/1 3:30,0,0,0,0,0,0,0,0
2004/12/1 3:45,0,0,0,0,0,0,0,0
2004/12/1 4:00,0,0,0,0,0,0,0,0
2004/12/1 4:15,0,0,0,0,0,0,0,0
2004/12/1 4:30,0,0,0,0,0,0,0,0
2004/12/1 4:45,0,0,0,0,0,0,0,0
2004/12/1 5:00,0,0,0,0,0,0,0,0
2004/12/1 5:15,0,0,0,0,0,0,0,0
2004/12/1 5:30,0,0,0,0,0,0,0,0
2004/12/1 5:45,0,0,0,0,0,0,0,0
2004/12/1 6:00,0,0,0,0,0,0,0,0
2004/12/1 6:15,0,0,0,0,0,0,0,0
2004/12/1 6:30,0.004991,0,0.147798,0,0.7326788,0,21.6967464,0
2004/12/1 6:45,0.13524,0,0.550137,0,19.853232,0,80.7601116,0
2004/12/1 7:00,0.129444,0,0.176456,0,19.0023792,0,25.9037408,0
2004/12/1 7:15,0.129766,0,0,0,19.0496488,0,0,0
2004/12/1 7:30,0.073255,0,0,0,10.753834,0,0,0
2004/12/1 7:45,0,0,0,0,0,0,0,0
2004/12/1 8:00,0,0,0,0,0,0,0,0
2004/12/1 8:15,0,0,0,0,0,0,0,0
2004/12/1 8:30,0,0,0,0,0,0,0,0
2004/12/1 8:45,0,0,0,0,0,0,0,0
2004/12/1 9:00,0,0,0,0,0,0,0,0
2004/12/1 9:15,0,0,0,0,0,0,0,0
2004/12/1 9:30,0,0,0,0,0,0,0,0
2004/12/1 9:45,0,0,0,0,0,0,0,0
2004/12/1 10:00,0,0,0,0,0,0,0,0
2004/12/1 10:15,0,0,0,0,0,0,0,0
2004/12/1 10:30,0,0,0,0,0,0,0,0
2004/12/1 10:45,0,0,0,0,0,0,0,0
2004/12/1 11:00,0,0,0,0,0,0,0,0
2004/12/1 11:15,0,0,0,0,0,0,0,0
2004/12/1 11:30,0,0,0,0,0,0,0,0
2004/12/1 11:45,0,0,0,0,0,0,0,0
2004/12/1 12:00,0,0,0,0,0,0,0,0
2004/12/1 12:15,0,0,0,0,0,0,0,0
2004/12/1 12:30,0,0,0,0,0,0,0,0
2004/12/1 12:45,0,0,0,0,0,0,0,0
2004/12/1 13:00,0,0,0,0,0,0,0,0
2004/12/1 13:15,0,0,0,0,0,0,0,0
2004/12/1 13:30,0,0,0,0,0,0,0,0
2004/12/1 13:45,0,0,0,0,0,0,0,0
2004/12/1 14:00,0,0,0,0,0,0,0,0
2004/12/1 14:15,0,0,0,0,0,0,0,0
2004/12/1 14:30,0,0,0,0,0,0,0,0
2004/12/1 14:45,0,0,0,0,0,0,0,0
2004/12/1 15:00,0,0,0,0,0,0,0,0
2004/12/1 15:15,0,0,0,0,0,0,0,0
2004/12/1 15:30,0,0,0,0,0,0,0,0
2004/12/1 15:45,0,0,0,0,0,0,0,0
2004/12/1 16:00,0,0,0,0,0,0,0,0
2004/12/1 16:15,0,0,0,0,0,0,0,0
2004/12/1 16:30,0,0,0,0,0,0,0,0
2004/12/1 16:45,0,0,0,0,0,0,0,0
2004/12/1 17:00,0,0,0,0,0,0,0,0
2004/12/1 17:15,0,0,0,0,0,0,0,0
2004/12/1 17:30,0,0,0,0,0,0,0,0
2004/12/1 17:45,0,0,0,0,0,0,0,0
2004/12/1 18:00,0.036386,0,0.055706,0,5.3414648,0,8.1776408,0
2004/12/1 18:15,0.146671,0,0.128317,0,21.5313028,0,18.8369356,0
2004/12/1 18:30,0.126707,0,0,0,18.6005876,0,0,0
2004/12/1 18:45,0.124614,0,0,0,18.2933352,0,0,0
2004/12/1 19:00,0.120106,0,0,0,17.6315608,0,0,0
2004/12/1 19:15,0.056994,0,0,0,8.3667192,0,0,0
2004/12/1 19:30,0.125902,0,0,0,18.4824136,0,0,0
2004/12/1 19:45,0.113988,0,0,0,16.7334384,0,0,0
2004/12/1 20:00,0.095634,0,0,0,14.0390712,0,0,0
2004/12/1 20:15,0.122843,0,0,0,18.0333524,0,0,0
2004/12/1 20:30,0.123326,0,0,0,18.1042568,0,0,0
2004/12/1 20:45,0.106904,0,0,0,15.6935072,0,0,0
2004/12/1 21:00,0.047656,0,0,0,6.9959008,0,0,0
2004/12/1 21:15,0.007728,0,0,0,1.1344704,0,0,0
2004/12/1 21:30,0.04669,0,0,0,6.854092,0,0,0
2004/12/1 21:45,0.061341,0,0,0,9.0048588,0,0,0
2004/12/1 22:00,0.124292,0,0,0,18.2460656,0,0,0
2004/12/1 22:15,0.12075,0,0,0,17.7261,0,0,0
2004/12/1 22:30,0.12075,0,0,0,17.7261,0,0,0
2004/12/1 22:45,0.120267,0,0,0,17.6551956,0,0,0
2004/12/1 23:00,0.122682,0,0.449834,0,18.0097176,0,66.0356312,0
2004/12/1 23:15,0.099176,0,0.357742,0,14.5590368,0,52.5165256,0
2004/12/1 23:30,0.025599,0,0,0,3.7579332,0,0,0
2004/12/1 23:45,0.014651,0,0,0,2.1507668,0,0,0
2004/12/2 0:00,0.022057,0,0.081788,0,3.2379676,0,12.0064784,0
2004/12/2 0:15,0.032844,0,0,0,4.8214992,0,0,0
2004/12/2 0:30,0.026404,0,0,0,3.8761072,0,0,0
2004/12/2 0:45,0.01449,0,0,0,2.127132,0,0,0
2004/12/2 1:00,0,0,0,0,0,0,0,0
2004/12/2 1:15,0.005474,0,0.175812,0,0.8035832,0,25.8092016,0
2004/12/2 1:30,0,0,0,0,0,0,0,0
2004/12/2 1:45,0,0,0,0,0,0,0,0
2004/12/2 2:00,0,0,0,0,0,0,0,0
2004/12/2 2:15,0,0,0,0,0,0,0,0
2004/12/2 2:30,0,0,0,0,0,0,0,0
2004/12/2 2:45,0,0,0,0,0,0,0,0
2004/12/2 3:00,0,0,0,0,0,0,0,0
2004/12/2 3:15,0,0,0,0,0,0,0,0
2004/12/2 3:30,0,0,0,0,0,0,0,0
2004/12/2 3:45,0,0,0,0,0,0,0,0
2004/12/2 4:00,0,0,0,0,0,0,0,0
2004/12/2 4:15,0,0,0,0,0,0,0,0
2004/12/2 4:30,0,0,0,0,0,0,0,0
2004/12/2 4:45,0,0,0,0,0,0,0,0
2004/12/2 5:00,0,0,0,0,0,0,0,0
2004/12/2 5:15,0,0,0,0,0,0,0,0
2004/12/2 5:30,0,0,0,0,0,0,0,0
2004/12/2 5:45,0,0,0,0,0,0,0,0
2004/12/2 6:00,0,0,0,0,0,0,0,0
2004/12/2 6:15,0.0161,0,0,0,2.36348,0,0,0
2004/12/2 6:30,0.149086,0,0,0,21.8858248,0,0,0
2004/12/2 6:45,0.127029,0,0.090321,0,18.6478572,0,13.2591228,0
2004/12/2 7:00,0.124936,0,0,0,18.3406048,0,0,0
2004/12/2 7:15,0.124131,0,0,0,18.2224308,0,0,0
2004/12/2 7:30,0.040894,0,0,0,6.0032392,0,0,0
2004/12/2 7:45,0.019159,0,0,0,2.8125412,0,0,0
2004/12/2 8:00,0.084042,0,0,0,12.3373656,0,0,0
2004/12/2 8:15,0,0,0,0,0,0,0,0
2004/12/2 8:30,0,0,0,0,0,0,0,0
2004/12/2 8:45,0,0,0,0,0,0,0,0
2004/12/2 9:00,0,0,0,0,0,0,0,0
2004/12/2 9:15,0,0,0,0,0,0,0,0
2004/12/2 9:30,0,0,0,0,0,0,0,0
2004/12/2 9:45,0,0,0,0,0,0,0,0
2004/12/2 10:00,0,0,0,0,0,0,0,0
2004/12/2 10:15,0,0,0,0,0,0,0,0
2004/12/2 10:30,0,0,0,0,0,0,0,0
2004/12/2 10:45,0,0,0,0,0,0,0,0
2004/12/2 11:00,0,0,0,0,0,0,0,0
2004/12/2 11:15,0,0,0,0,0,0,0,0
2004/12/2 11:30,0,0,0,0,0,0,0,0
2004/12/2 11:45,0,0,0,0,0,0,0,0
2004/12/2 12:00,0,0,0,0,0,0,0,0
2004/12/2 12:15,0,0,0,0,0,0,0,0
2004/12/2 12:30,0,0,0,0,0,0,0,0
2004/12/2 12:45,0,0,0,0,0,0,0,0
2004/12/2 13:00,0,0,0,0,0,0,0,0
2004/12/2 13:15,0,0,0,0,0,0,0,0
2004/12/2 13:30,0,0,0,0,0,0,0,0
2004/12/2 13:45,0,0,0,0,0,0,0,0
2004/12/2 14:00,0,0,0,0,0,0,0,0
2004/12/2 14:15,0,0,0,0,0,0,0,0
2004/12/2 14:30,0,0,0,0,0,0,0,0
2004/12/2 14:45,0,0,0,0,0,0,0,0
2004/12/2 15:00,0,0,0,0,0,0,0,0
2004/12/2 15:15,0,0,0,0,0,0,0,0
2004/12/2 15:30,0,0,0,0,0,0,0,0
2004/12/2 15:45,0,0,0,0,0,0,0,0
2004/12/2 16:00,0,0,0,0,0,0,0,0
2004/12/2 16:15,0,0,0,0,0,0,0,0
2004/12/2 16:30,0,0,0,0,0,0,0,0
2004/12/2 16:45,0,0,0,0,0,0,0,0
2004/12/2 17:00,0.070035,0,0,0,10.281138,0,0,0
2004/12/2 17:15,0.135079,0,0,0,19.8295972,0,0,0
2004/12/2 17:30,0.125419,0,0,0,18.4115092,0,0,0
2004/12/2 17:45,0.126224,0,0,0,18.5296832,0,0,0
2004/12/2 18:00,0.124936,0,0,0,18.3406048,0,0,0
2004/12/2 18:15,0.124131,0,0,0,18.2224308,0,0,0
2004/12/2 18:30,0.122843,0,0,0,18.0333524,0,0,0
2004/12/2 18:45,0.123326,0,0,0,18.1042568,0,0,0
2004/12/2 19:00,0.12075,0,0,0,17.7261,0,0,0
2004/12/2 19:15,0.106904,0,0,0,15.6935072,0,0,0
2004/12/2 19:30,0.005474,0,0,0,0.8035832,0,0,0
2004/12/2 19:45,0.101269,0,0,0,14.8662892,0,0,0
2004/12/2 20:00,0.116081,0,0,0,17.0406908,0,0,0
2004/12/2 20:15,0.044436,0,0,0,6.5232048,0,0,0
2004/12/2 20:30,0.012719,0,0,0,1.8671492,0,0,0
2004/12/2 20:45,0.099176,0,0,0,14.5590368,0,0,0
2004/12/2 21:00,0.014168,0,0,0,2.0798624,0,0,0
2004/12/2 21:15,0.024794,0,0,0,3.6397592,0,0,0
2004/12/2 21:30,0.010948,0,0,0,1.6071664,0,0,0
2004/12/2 21:45,0.025599,0,0,0,3.7579332,0,0,0
2004/12/2 22:00,0.030429,0,0,0,4.4669772,0,0,0
2004/12/2 22:15,0.031556,0,0,0,4.6324208,0,0,0
2004/12/2 22:30,0.044597,0,0,0,6.5468396,0,0,0
2004/12/2 22:45,0.005474,0,0,0,0.8035832,0,0,0
2004/12/2 23:00,0.016261,0,0,0,2.3871148,0,0,0
2004/12/2 23:15,0.0161,0,0,0,2.36348,0,0,0
2004/12/2 23:30,0.131376,0,0,0,19.2859968,0,0,0
2004/12/2 23:45,0.056833,0,0,0,8.3430844,0,0,0
2004/12/3 0:00,0.016261,0,0,0,2.3871148,0,0,0
2004/12/3 0:15,0,0,0,0,0,0,0,0
2004/12/3 0:30,0,0,0,0,0,0,0,0
2004/12/3 0:45,0,0,0,0,0,0,0,0
2004/12/3 1:00,0,0,0,0,0,0,0,0
2004/12/3 1:15,0,0,0,0,0,0,0,0
2004/12/3 1:30,0,0,0,0,0,0,0,0
2004/12/3 1:45,0,0,0,0,0,0,0,0
2004/12/3 2:00,0,0,0,0,0,0,0,0
2004/12/3 2:15,0,0,0,0,0,0,0,0
2004/12/3 2:30,0,0,0,0,0,0,0,0
2004/12/3 2:45,0,0,0,0,0,0,0,0
2004/12/3 3:00,0,0,0,0,0,0,0,0
2004/12/3 3:15,0,0,0,0,0,0,0,0
2004/12/3 3:30,0,0,0,0,0,0,0,0
2004/12/3 3:45,0,0,0,0,0,0,0,0
2004/12/3 4:00,0,0,0,0,0,0,0,0
2004/12/3 4:15,0.15456,0,0,0,22.689408,0,0,0
2004/12/3 4:30,0.128156,0,0,0,18.8133008,0,0,0
2004/12/3 4:45,0.130088,0,0,0,19.0969184,0,0,0
2004/12/3 5:00,0.127351,0,0,0,18.6951268,0,0,0
2004/12/3 5:15,0.126707,0,0,0,18.6005876,0,0,0
2004/12/3 5:30,0.127512,0,0,0,18.7187616,0,0,0
2004/12/3 5:45,0.125097,0,0,0,18.3642396,0,0,0
2004/12/3 6:00,0.125097,0,0,0,18.3642396,0,0,0
2004/12/3 6:15,0.123326,0,0,0,18.1042568,0,0,0
2004/12/3 6:30,0.12075,0,0.285936,0,17.7261,0,41.9754048,0
2004/12/3 6:45,0.020125,0,0.275149,0,2.95435,0,40.3918732,0
2004/12/3 7:00,0.005635,0,0.124775,0,0.827218,0,18.31697,0
2004/12/3 7:15,0.009982,0,0,0,1.4653576,0,0,0
2004/12/3 7:30,0.01932,0,0,0,2.836176,0,0,0
2004/12/3 7:45,0.010948,0,0,0,1.6071664,0,0,0
2004/12/3 8:00,0.005313,0,0,0,0.7799484,0,0,0
2004/12/3 8:15,0.005635,0,0.101108,0,0.827218,0,14.8426544,0
2004/12/3 8:30,0,0,0,0,0,0,0,0
2004/12/3 8:45,0,0,0,0,0,0,0,0
2004/12/3 9:00,0,0,0,0,0,0,0,0
2004/12/3 9:15,0,0,0,0,0,0,0,0
2004/12/3 9:30,0,0,0,0,0,0,0,0
2004/12/3 9:45,0,0,0,0,0,0,0,0
2004/12/3 10:00,0,0,0,0,0,0,0,0
2004/12/3 10:15,0,0,0,0,0,0,0,0
2004/12/3 10:30,0,0,0,0,0,0,0,0
2004/12/3 10:45,0,0,0,0,0,0,0,0
2004/12/3 11:00,0,0,0,0,0,0,0,0
2004/12/3 11:15,0,0,0,0,0,0,0,0
2004/12/3 11:30,0,0,0,0,0,0,0,0
2004/12/3 11:45,0,0,0,0,0,0,0,0
2004/12/3 12:00,0,0,0,0,0,0,0,0
2004/12/3 12:15,0,0,0,0,0,0,0,0
2004/12/3 12:30,0,0,0,0,0,0,0,0
2004/12/3 12:45,0,0,0,0,0,0,0,0
2004/12/3 13:00,0,0,0,0,0,0,0,0
2004/12/3 13:15,0,0,0,0,0,0,0,0
2004/12/3 13:30,0,0,0,0,0,0,0,0
2004/12/3 13:45,0,0,0,0,0,0,0,0
2004/12/3 14:00,0,0,0,0,0,0,0,0
2004/12/3 14:15,0,0,0,0,0,0,0,0
2004/12/3 14:30,0,0,0,0,0,0,0,0
2004/12/3 14:45,0,0,0,0,0,0,0,0
2004/12/3 15:00,0,0,0,0,0,0,0,0
2004/12/3 15:15,0,0,0,0,0,0,0,0
2004/12/3 15:30,0,0,0,0,0,0,0,0
2004/12/3 15:45,0,0,0,0,0,0,0,0
2004/12/3 16:00,0,0,0,0,0,0,0,0
2004/12/3 16:15,0,0,0,0,0,0,0,0
2004/12/3 16:30,0,0,0,0,0,0,0,0
2004/12/3 16:45,0,0,0,0,0,0,0,0
2004/12/3 17:00,0,0,0,0,0,0,0,0
2004/12/3 17:15,0,0,0,0,0,0,0,0
2004/12/3 17:30,0,0,0,0,0,0,0,0
2004/12/3 17:45,0,0,0,0,0,0,0,0
2004/12/3 18:00,0,0,0,0,0,0,0,0
2004/12/3 18:15,0,0,0,0,0,0,0,0
2004/12/3 18:30,0,0,0,0,0,0,0,0
2004/12/3 18:45,0.126385,0,0.017066,0,18.553318,0,2.5052888,0
2004/12/3 19:00,0.121555,0,0.150052,0,17.844274,0,22.0276336,0
2004/12/3 19:15,0.122199,0,0,0,17.9388132,0,0,0
2004/12/3 19:30,0.122843,0,0,0,18.0333524,0,0,0
2004/12/3 19:45,0.11914,0,0,0,17.489752,0,0,0
2004/12/3 20:00,0.116886,0,0,0,17.1588648,0,0,0
2004/12/3 20:15,0.116725,0,0,0,17.13523,0,0,0
2004/12/3 20:30,0.117691,0,0,0,17.2770388,0,0,0
2004/12/3 20:45,0.041699,0,0,0,6.1214132,0,0,0
2004/12/3 21:00,0.00483,0,0,0,0.709044,0,0,0
2004/12/3 21:15,0.01288,0,0,0,1.890784,0,0,0
2004/12/3 21:30,0.029463,0,0,0,4.3251684,0,0,0
2004/12/3 21:45,0.116564,0,0,0,17.1115952,0,0,0
2004/12/3 22:00,0.058443,0,0,0,8.5794324,0,0,0
2004/12/3 22:15,0.011109,0,0,0,1.6308012,0,0,0
2004/12/3 22:30,0.042987,0,0,0,6.3104916,0,0,0
2004/12/3 22:45,0.065849,0,0,0,9.6666332,0,0,0
2004/12/3 23:00,0,0,0,0,0,0,0,0
2004/12/3 23:15,0.094668,0,0,0,13.8972624,0,0,0
2004/12/3 23:30,0.104811,0,0,0,15.3862548,0,0,0
2004/12/3 23:45,0.03703,0,0,0,5.436004,0,0,0
2004/12/4 0:00,0,0,0,0,0,0,0,0
2004/12/4 0:15,0,0,0,0,0,0,0,0
2004/12/4 0:30,0,0,0,0,0,0,0,0
2004/12/4 0:45,0,0,0,0,0,0,0,0
2004/12/4 1:00,0,0,0,0,0,0,0,0
2004/12/4 1:15,0,0,0,0,0,0,0,0
2004/12/4 1:30,0.056672,0,0,0,8.3194496,0,0,0
2004/12/4 1:45,0.13041,0,0,0,19.144188,0,0,0
2004/12/4 2:00,0.01449,0,0,0,2.127132,0,0,0
2004/12/4 2:15,0,0,0,0,0,0,0,0
2004/12/4 2:30,0,0,0,0,0,0,0,0
2004/12/4 2:45,0,0,0,0,0,0,0,0
2004/12/4 3:00,0,0,0,0,0,0,0,0
2004/12/4 3:15,0,0,0,0,0,0,0,0
2004/12/4 3:30,0,0,0,0,0,0,0,0
2004/12/4 3:45,0,0,0,0,0,0,0,0
2004/12/4 4:00,0,0,0,0,0,0,0,0
2004/12/4 4:15,0,0,0,0,0,0,0,0
2004/12/4 4:30,0,0,0,0,0,0,0,0
2004/12/4 4:45,0,0,0,0,0,0,0,0
2004/12/4 5:00,0,0,0,0,0,0,0,0
2004/12/4 5:15,0,0,0,0,0,0,0,0
2004/12/4 5:30,0,0,0,0,0,0,0,0
2004/12/4 5:45,0,0,0,0,0,0,0,0
2004/12/4 6:00,0,0,0,0,0,0,0,0
2004/12/4 6:15,0,0,0,0,0,0,0,0
2004/12/4 6:30,0,0,0,0,0,0,0,0
2004/12/4 6:45,0,0,0,0,0,0,0,0
2004/12/4 7:00,0,0,0,0,0,0,0,0
2004/12/4 7:15,0,0,0,0,0,0,0,0
2004/12/4 7:30,0.002576,0,0.539511,0,0.3781568,0,79.2002148,0
2004/12/4 7:45,0.000161,0,0.03381,0,0.0236348,0,4.963308,0
2004/12/4 8:00,0.149086,0,0,0,21.8858248,0,0,0
2004/12/4 8:15,0.124614,0,0,0,18.2933352,0,0,0
2004/12/4 8:30,0.122038,0,0,0,17.9151784,0,0,0
2004/12/4 8:45,0.11753,0,0,0,17.253404,0,0,0
2004/12/4 9:00,0.115276,0,0,0,16.9225168,0,0,0
2004/12/4 9:15,0.116403,0,0,0,17.0879604,0,0,0
2004/12/4 9:30,0.046851,0,0,0,6.8777268,0,0,0
2004/12/4 9:45,0.007567,0,0,0,1.1108356,0,0,0
2004/12/4 10:00,0.013202,0,0.114149,0,1.9380536,0,16.7570732,0
2004/12/4 10:15,0.00483,0,0.034454,0,0.709044,0,5.0578472,0
2004/12/4 10:30,0.00483,0,0,0,0.709044,0,0,0
2004/12/4 10:45,0.00966,0,0,0,1.418088,0,0,0
2004/12/4 11:00,0.017066,0,0,0,2.5052888,0,0,0
2004/12/4 11:15,0.005152,0,0,0,0.7563136,0,0,0
2004/12/4 11:30,0,0,0,0,0,0,0,0
2004/12/4 11:45,0,0,0,0,0,0,0,0
2004/12/4 12:00,0,0,0,0,0,0,0,0
2004/12/4 12:15,0,0,0,0,0,0,0,0
2004/12/4 12:30,0,0,0,0,0,0,0,0
2004/12/4 12:45,0,0,0,0,0,0,0,0
2004/12/4 13:00,0,0,0,0,0,0,0,0
2004/12/4 13:15,0,0,0,0,0,0,0,0
2004/12/4 13:30,0,0,0,0,0,0,0,0
2004/12/4 13:45,0,0,0,0,0,0,0,0
2004/12/4 14:00,0,0,0,0,0,0,0,0
2004/12/4 14:15,0,0,0,0,0,0,0,0
2004/12/4 14:30,0,0,0,0,0,0,0,0
2004/12/4 14:45,0,0,0,0,0,0,0,0
2004/12/4 15:00,0,0,0,0,0,0,0,0
2004/12/4 15:15,0,0,0,0,0,0,0,0
2004/12/4 15:30,0,0,0,0,0,0,0,0
2004/12/4 15:45,0,0,0,0,0,0,0,0
2004/12/4 16:00,0,0,0,0,0,0,0,0
2004/12/4 16:15,0,0,0,0,0,0,0,0
2004/12/4 16:30,0,0,0,0,0,0,0,0
2004/12/4 16:45,0.085491,0,0,0,12.5500788,0,0,0
2004/12/4 17:00,0.121877,0,0,0,17.8915436,0,0,0
2004/12/4 17:15,0.119784,0,0,0,17.5842912,0,0,0
2004/12/4 17:30,0.117369,0,0,0,17.2297692,0,0,0
2004/12/4 17:45,0.116403,0,0,0,17.0879604,0,0,0
2004/12/4 18:00,0.11753,0,0,0,17.253404,0,0,0
2004/12/4 18:15,0.089999,0,0,0,13.2118532,0,0,0
2004/12/4 18:30,0.004991,0,0,0,0.7326788,0,0,0
2004/12/4 18:45,0.065205,0,0,0,9.572094,0,0,0
2004/12/4 19:00,0.11431,0,0,0,16.780708,0,0,0
2004/12/4 19:15,0.056833,0,0,0,8.3430844,0,0,0
2004/12/4 19:30,0.033488,0,0,0,4.9160384,0,0,0
2004/12/4 19:45,0.107226,0,0,0,15.7407768,0,0,0
2004/12/4 20:00,0.016744,0,0,0,2.4580192,0,0,0
2004/12/4 20:15,0.00483,0,0,0,0.709044,0,0,0
2004/12/4 20:30,0.085974,0,0,0,12.6209832,0,0,0
2004/12/4 20:45,0.047817,0,0,0,7.0195356,0,0,0
2004/12/4 21:00,0.036386,0,0.309925,0,5.3414648,0,45.49699,0
2004/12/4 21:15,0.010787,0,0.489279,0,1.5835316,0,71.8261572,0
2004/12/4 21:30,0.005152,0,0.037996,0,0.7563136,0,5.5778128,0
2004/12/4 21:45,0.060214,0,0,0,8.8394152,0,0,0
2004/12/4 22:00,0.00483,0,0,0,0.709044,0,0,0
2004/12/4 22:15,0.00966,0,0,0,1.418088,0,0,0
2004/12/4 22:30,0.008533,0,0,0,1.2526444,0,0,0
2004/12/4 22:45,0.083076,0,0,0,12.1955568,0,0,0
2004/12/4 23:00,0.114954,0,0,0,16.8752472,0,0,0
2004/12/4 23:15,0.069552,0,0.046046,0,10.2102336,0,6.7595528,0
2004/12/4 23:30,0.010948,0,0.107387,0,1.6071664,0,15.7644116,0
2004/12/4 23:45,0.00483,0,0,0,0.709044,0,0,0
2004/12/5 0:00,0.004991,0,0,0,0.7326788,0,0,0
2004/12/5 0:15,0.017227,0,0.129283,0,2.5289236,0,18.9787444,0
2004/12/5 0:30,0,0,0.015456,0,0,0,2.2689408,0
2004/12/5 0:45,0,0,0,0,0,0,0,0
2004/12/5 1:00,0.028497,0,0,0,4.1833596,0,0,0
2004/12/5 1:15,0.097566,0,0,0,14.3226888,0,0,0
2004/12/5 1:30,0.098532,0,0,0,14.4644976,0,0,0
2004/12/5 1:45,0,0,0,0,0,0,0,0
2004/12/5 2:00,0,0,0,0,0,0,0,0
2004/12/5 2:15,0,0,0,0,0,0,0,0
2004/12/5 2:30,0,0,0,0,0,0,0,0
2004/12/5 2:45,0,0,0,0,0,0,0,0
2004/12/5 3:00,0,0,0,0,0,0,0,0
2004/12/5 3:15,0,0,0,0,0,0,0,0
2004/12/5 3:30,0,0,0,0,0,0,0,0
2004/12/5 3:45,0,0,0,0,0,0,0,0
2004/12/5 4:00,0,0,0,0,0,0,0,0
2004/12/5 4:15,0,0,0,0,0,0,0,0
2004/12/5 4:30,0,0,0,0,0,0,0,0
2004/12/5 4:45,0,0,0,0,0,0,0,0
2004/12/5 5:00,0,0,0,0,0,0,0,0
2004/12/5 5:15,0,0,0,0,0,0,0,0
2004/12/5 5:30,0,0,0,0,0,0,0,0
2004/12/5 5:45,0,0,0,0,0,0,0,0
2004/12/5 6:00,0,0,0,0,0,0,0,0
2004/12/5 6:15,0,0,0,0,0,0,0,0
2004/12/5 6:30,0,0,0,0,0,0,0,0
2004/12/5 6:45,0,0,0,0,0,0,0,0
2004/12/5 7:00,0,0,0,0,0,0,0,0
2004/12/5 7:15,0,0,0,0,0,0,0,0
2004/12/5 7:30,0,0,0,0,0,0,0,0
2004/12/5 7:45,0.1127,0,0,0,16.54436,0,0,0
2004/12/5 8:00,0.103201,0,0,0,15.1499068,0,0,0
2004/12/5 8:15,0.090965,0,0,0,13.353662,0,0,0
2004/12/5 8:30,0.046207,0,0,0,6.7831876,0,0,0
2004/12/5 8:45,0.005635,0,0,0,0.827218,0,0,0
2004/12/5 9:00,0.009821,0,0,0,1.4417228,0,0,0
2004/12/5 9:15,0.010465,0,0.11109,0,1.536262,0,16.308012,0
2004/12/5 9:30,0.00483,0,0,0,0.709044,0,0,0
2004/12/5 9:45,0.002093,0,0,0,0.3072524,0,0,0
2004/12/5 10:00,0,0,0,0,0,0,0,0
2004/12/5 10:15,0,0,0,0,0,0,0,0
2004/12/5 10:30,0,0,0,0,0,0,0,0
2004/12/5 10:45,0,0,0,0,0,0,0,0
2004/12/5 11:00,0,0,0,0,0,0,0,0
2004/12/5 11:15,0,0,0,0,0,0,0,0
2004/12/5 11:30,0,0,0,0,0,0,0,0
2004/12/5 11:45,0,0,0,0,0,0,0,0
2004/12/5 12:00,0,0,0,0,0,0,0,0
2004/12/5 12:15,0,0,0,0,0,0,0,0
2004/12/5 12:30,0,0,0,0,0,0,0,0
2004/12/5 12:45,0,0,0,0,0,0,0,0
2004/12/5 13:00,0,0,0,0,0,0,0,0
2004/12/5 13:15,0,0,0,0,0,0,0,0
2004/12/5 13:30,0,0,0,0,0,0,0,0
2004/12/5 13:45,0,0,0,0,0,0,0,0
2004/12/5 14:00,0,0,0,0,0,0,0,0
2004/12/5 14:15,0,0,0,0,0,0,0,0
2004/12/5 14:30,0,0,0,0,0,0,0,0
2004/12/5 14:45,0,0,0,0,0,0,0,0
2004/12/5 15:00,0,0,0,0,0,0,0,0
2004/12/5 15:15,0,0,0,0,0,0,0,0
2004/12/5 15:30,0,0,0,0,0,0,0,0
2004/12/5 15:45,0,0,0,0,0,0,0,0
2004/12/5 16:00,0,0,0,0,0,0,0,0
2004/12/5 16:15,0,0,0,0,0,0,0,0
2004/12/5 16:30,0.094668,0,0,0,13.8972624,0,0,0
2004/12/5 16:45,0.101752,0,0,0,14.9371936,0,0,0
2004/12/5 17:00,0.020286,0,0,0,2.9779848,0,0,0
2004/12/5 17:15,0.022701,0,0,0,3.3325068,0,0,0
2004/12/5 17:30,0.045241,0,0,0,6.6413788,0,0,0
2004/12/5 17:45,0.109319,0,0,0,16.0480292,0,0,0
2004/12/5 18:00,0.005796,0,0,0,0.8508528,0,0,0
2004/12/5 18:15,0.007084,0,0,0,1.0399312,0,0,0
2004/12/5 18:30,0.008372,0,0,0,1.2290096,0,0,0
2004/12/5 18:45,0.010465,0,0,0,1.536262,0,0,0
2004/12/5 19:00,0.009982,0,0,0,1.4653576,0,0,0
2004/12/5 19:15,0.018354,0,0,0,2.6943672,0,0,0
2004/12/5 19:30,0.009499,0,0,0,1.3944532,0,0,0
2004/12/5 19:45,0.082915,0,0,0,12.171922,0,0,0
2004/12/5 20:00,0.115598,0,0,0,16.9697864,0,0,0
2004/12/5 20:15,0.073255,0,0,0,10.753834,0,0,0
2004/12/5 20:30,0.044275,0,0,0,6.49957,0,0,0
2004/12/5 20:45,0.042343,0,0,0,6.2159524,0,0,0
2004/12/5 21:00,0.044436,0,0,0,6.5232048,0,0,0
2004/12/5 21:15,0.026404,0,0.176456,0,3.8761072,0,25.9037408,0
2004/12/5 21:30,0.050876,0,0.180159,0,7.4685968,0,26.4473412,0
2004/12/5 21:45,0.050071,0,0,0,7.3504228,0,0,0
2004/12/5 22:00,0.010304,0,0,0,1.5126272,0,0,0
2004/12/5 22:15,0.080178,0,0.063273,0,11.7701304,0,9.2884764,0
2004/12/5 22:30,0.028819,0,0,0,4.2306292,0,0,0
2004/12/5 22:45,0.007084,0,0,0,1.0399312,0,0,0
2004/12/5 23:00,0.02576,0,0,0,3.781568,0,0,0
2004/12/5 23:15,0.022701,0,0,0,3.3325068,0,0,0
2004/12/5 23:30,0.120428,0,0,0,17.6788304,0,0,0
2004/12/5 23:45,0.039928,0,0.03542,0,5.8614304,0,5.199656,0
2004/12/6 0:00,0.000161,0,0.102879,0,0.0236348,0,15.1026372,0
2004/12/6 0:15,0,0,0,0,0,0,0,0
2004/12/6 0:30,0.000161,0,0.019159,0,0.0236348,0,2.8125412,0
2004/12/6 0:45,0,0,0.045563,0,0,0,6.6886484,0
2004/12/6 1:00,0,0,0,0,0,0,0,0
2004/12/6 1:15,0,0,0,0,0,0,0,0
2004/12/6 1:30,0,0,0,0,0,0,0,0
2004/12/6 1:45,0,0,0,0,0,0,0,0
2004/12/6 2:00,0,0,0,0,0,0,0,0
2004/12/6 2:15,0,0,0,0,0,0,0,0
2004/12/6 2:30,0,0,0,0,0,0,0,0
2004/12/6 2:45,0,0,0,0,0,0,0,0
2004/12/6 3:00,0,0,0,0,0,0,0,0
2004/12/6 3:15,0,0,0,0,0,0,0,0
2004/12/6 3:30,0,0,0,0,0,0,0,0
2004/12/6 3:45,0,0,0,0,0,0,0,0
2004/12/6 4:00,0,0,0,0,0,0,0,0
2004/12/6 4:15,0,0,0,0,0,0,0,0
2004/12/6 4:30,0,0,0,0,0,0,0,0
2004/12/6 4:45,0,0,0,0,0,0,0,0
2004/12/6 5:00,0,0,0,0,0,0,0,0
2004/12/6 5:15,0,0,0,0,0,0,0,0
2004/12/6 5:30,0,0,0,0,0,0,0,0
2004/12/6 5:45,0,0,0,0,0,0,0,0
2004/12/6 6:00,0,0,0,0,0,0,0,0
2004/12/6 6:15,0,0,0,0,0,0,0,0
2004/12/6 6:30,0,0,0,0,0,0,0,0
2004/12/6 6:45,0,0,0,0,0,0,0,0
2004/12/6 7:00,0,0,0,0,0,0,0,0
2004/12/6 7:15,0,0,0,0,0,0,0,0
2004/12/6 7:30,0.05152,0,0,0,7.563136,0,0,0
2004/12/6 7:45,0.134918,0,0,0,19.8059624,0,0,0
2004/12/6 8:00,0.113505,0,0.305578,0,16.662534,0,44.8588504,0
2004/12/6 8:15,0.003864,0,0,0,0.5672352,0,0,0
2004/12/6 8:30,0,0,0,0,0,0,0,0
2004/12/6 8:45,0,0,0,0,0,0,0,0
2004/12/6 9:00,0,0,0,0,0,0,0,0
2004/12/6 9:15,0,0,0,0,0,0,0,0
2004/12/6 9:30,0,0,0,0,0,0,0,0
2004/12/6 9:45,0,0,0,0,0,0,0,0
2004/12/6 10:00,0,0,0,0,0,0,0,0
2004/12/6 10:15,0,0,0,0,0,0,0,0
2004/12/6 10:30,0,0,0,0,0,0,0,0
2004/12/6 10:45,0,0,0,0,0,0,0,0
2004/12/6 11:00,0,0,0,0,0,0,0,0
2004/12/6 11:15,0,0,0,0,0,0,0,0
2004/12/6 11:30,0,0,0,0,0,0,0,0
2004/12/6 11:45,0,0,0,0,0,0,0,0
2004/12/6 12:00,0,0,0,0,0,0,0,0
2004/12/6 12:15,0,0,0,0,0,0,0,0
2004/12/6 12:30,0,0,0,0,0,0,0,0
2004/12/6 12:45,0,0,0,0,0,0,0,0
2004/12/6 13:00,0,0,0,0,0,0,0,0
2004/12/6 13:15,0,0,0,0,0,0,0,0
2004/12/6 13:30,0,0,0,0,0,0,0,0
2004/12/6 13:45,0,0,0,0,0,0,0,0
2004/12/6 14:00,0,0,0,0,0,0,0,0
2004/12/6 14:15,0,0,0,0,0,0,0,0
2004/12/6 14:30,0,0,0,0,0,0,0,0
2004/12/6 14:45,0,0,0,0,0,0,0,0
2004/12/6 15:00,0,0,0,0,0,0,0,0
2004/12/6 15:15,0,0,0,0,0,0,0,0
2004/12/6 15:30,0,0,0,0,0,0,0,0
2004/12/6 15:45,0,0,0,0,0,0,0,0
2004/12/6 16:00,0,0,0,0,0,0,0,0
2004/12/6 16:15,0,0,0,0,0,0,0,0
2004/12/6 16:30,0,0,0,0,0,0,0,0
2004/12/6 16:45,0,0,0,0,0,0,0,0
2004/12/6 17:00,0,0,0,0,0,0,0,0
2004/12/6 17:15,0,0,0,0,0,0,0,0
2004/12/6 17:30,0,0,0,0,0,0,0,0
2004/12/6 17:45,0,0,0,0,0,0,0,0
2004/12/6 18:00,0,0,0,0,0,0,0,0
2004/12/6 18:15,0,0,0,0,0,0,0,0
2004/12/6 18:30,0,0,0,0,0,0,0,0
2004/12/6 18:45,0,0,0,0,0,0,0,0
2004/12/6 19:00,0.07567,0,0,0,11.108356,0,0,0
2004/12/6 19:15,0.128156,0,0,0,18.8133008,0,0,0
2004/12/6 19:30,0.122199,0,0,0,17.9388132,0,0,0
2004/12/6 19:45,0.121072,0,0,0,17.7733696,0,0,0
2004/12/6 20:00,0.109641,0,0,0,16.0952988,0,0,0
2004/12/6 20:15,0.123326,0,0,0,18.1042568,0,0,0
2004/12/6 20:30,0.122843,0,0,0,18.0333524,0,0,0
2004/12/6 20:45,0.120106,0,0,0,17.6315608,0,0,0
2004/12/6 21:00,0.12075,0,0,0,17.7261,0,0,0
2004/12/6 21:15,0.097405,0,0,0,14.299054,0,0,0
2004/12/6 21:30,0.005474,0,0,0,0.8035832,0,0,0
2004/12/6 21:45,0.012397,0,0,0,1.8198796,0,0,0
2004/12/6 22:00,0.066171,0,0,0,9.7139028,0,0,0
2004/12/6 22:15,0.123648,0,0,0,18.1515264,0,0,0
2004/12/6 22:30,0.093863,0,0,0,13.7790884,0,0,0
2004/12/6 22:45,0.089677,0,0,0,13.1645836,0,0,0
2004/12/6 23:00,0.074221,0,0.11753,0,10.8956428,0,17.253404,0
2004/12/6 23:15,0.071806,0,0,0,10.5411208,0,0,0
2004/12/6 23:30,0.02898,0,0,0,4.254264,0,0,0
2004/12/6 23:45,0.031234,0,0,0,4.5851512,0,0,0
2004/12/7 0:00,0.024472,0,0.02093,0,3.5924896,0,3.072524,0
2004/12/7 0:15,0.018837,0,0,0,2.7652716,0,0,0
2004/12/7 0:30,0.028014,0,0,0,4.1124552,0,0,0
2004/12/7 0:45,0.0322,0,0.020769,0,4.72696,0,3.0488892,0
2004/12/7 1:00,0.032683,0,0,0,4.7978644,0,0,0
2004/12/7 1:15,0.049427,0,0,0,7.2558836,0,0,0
2004/12/7 1:30,0.047012,0,0.221536,0,6.9013616,0,32.5214848,0
2004/12/7 1:45,0.034454,0,0.460299,0,5.0578472,0,67.5718932,0
2004/12/7 2:00,0.030429,0,0.016261,0,4.4669772,0,2.3871148,0
2004/12/7 2:15,0.033649,0,0,0,4.9396732,0,0,0
2004/12/7 2:30,0.036064,0,0,0,5.2941952,0,0,0
2004/12/7 2:45,0.039928,0,0,0,5.8614304,0,0,0
2004/12/7 3:00,0.039606,0,0,0,5.8141608,0,0,0
2004/12/7 3:15,0.002093,0,0,0,0.3072524,0,0,0
2004/12/7 3:30,0,0,0,0,0,0,0,0
2004/12/7 3:45,0,0,0,0,0,0,0,0
2004/12/7 4:00,0,0,0,0,0,0,0,0
2004/12/7 4:15,0,0,0,0,0,0,0,0
2004/12/7 4:30,0,0,0,0,0,0,0,0
2004/12/7 4:45,0,0,0,0,0,0,0,0
2004/12/7 5:00,0,0,0,0,0,0,0,0
2004/12/7 5:15,0,0,0,0,0,0,0,0
2004/12/7 5:30,0,0,0,0,0,0,0,0
2004/12/7 5:45,0,0,0,0,0,0,0,0
2004/12/7 6:00,0,0,0,0,0,0,0,0
2004/12/7 6:15,0,0,0,0,0,0,0,0